Back to catalog

KUIPER-00082

AliveCommunicationsLEO
NORAD 64828·PAYLOAD·🇺🇸 United States

Launched Jul 16, 2025 from Cape Canaveral Space Force Station

Loading…

Next Passes (next 24 hours)

TLE

FreshSource: CelesTrak SupGP

Epoch: Sep 14, 2026, 15:07 UTC

1 64828C 25151N   26257.63027778  .00003740  00000+0  48960-3 0  2574
2 64828  51.9002 172.6299 0000961  81.7771 149.1649 14.79923911    11

Track KUIPER-00082 in real time with AllMySat

Download on the App Store